Time,TemperatureF,DewpointF,PressureIn,WindDirection,WindDirectionDegrees,WindSpeedMPH,WindSpeedGustMPH,Humidity,HourlyPrecipIn,Conditions,Clouds,dailyrainin,SoftwareType,DateUTC
2013-03-15 00:00:00,27.0,18.2,30.18,West,271,0.0,2.0,69,0.00,,---,0.00,VWS V13.01,2013-03-15 04:00:00,
2013-03-15 00:05:00,26.7,18.6,30.17,West,271,1.0,1.0,71,0.00,,---,0.00,VWS V13.01,2013-03-15 04:05:00,
2013-03-15 00:10:00,26.4,18.3,30.17,West,271,0.0,2.0,71,0.00,,---,0.00,VWS V13.01,2013-03-15 04:10:00,
2013-03-15 00:15:00,26.2,18.4,30.17,West,271,0.0,2.0,72,0.00,,---,0.00,VWS V13.01,2013-03-15 04:15:00,
2013-03-15 00:20:00,26.1,18.6,30.17,West,271,0.0,2.0,73,0.00,,---,0.00,VWS V13.01,2013-03-15 04:20:00,
2013-03-15 00:25:00,26.1,19.0,30.17,West,271,0.0,2.0,74,0.00,,---,0.00,VWS V13.01,2013-03-15 04:25:00,
2013-03-15 00:30:00,26.1,19.0,30.16,West,263,2.0,2.0,74,0.00,,---,0.00,VWS V13.01,2013-03-15 04:30:00,
2013-03-15 00:35:00,26.2,19.1,30.16,West,263,2.0,3.0,74,0.00,,---,0.00,VWS V13.01,2013-03-15 04:35:00,
2013-03-15 00:40:00,26.2,19.1,30.16,West,263,0.0,3.0,74,0.00,,---,0.00,VWS V13.01,2013-03-15 04:40:00,
2013-03-15 00:45:00,26.2,19.1,30.16,West,263,0.0,3.0,74,0.00,,---,0.00,VWS V13.01,2013-03-15 04:45:00,
2013-03-15 00:50:00,26.1,19.0,30.16,West,263,0.0,3.0,74,0.00,,---,0.00,VWS V13.01,2013-03-15 04:50:00,
2013-03-15 00:55:00,26.1,19.0,30.16,West,263,1.0,3.0,74,0.00,,---,0.00,VWS V13.01,2013-03-15 04:55:00,
2013-03-15 01:00:00,26.0,18.9,30.16,West,263,2.0,2.0,74,0.00,,---,0.00,VWS V13.01,2013-03-15 05:00:00,
2013-03-15 01:05:00,26.1,19.0,30.16,SSW,212,2.0,3.0,74,0.00,,---,0.00,VWS V13.01,2013-03-15 05:05:00,
2013-03-15 01:10:00,26.3,19.1,30.15,SSW,199,2.0,4.0,74,0.00,,---,0.00,VWS V13.01,2013-03-15 05:10:00,
2013-03-15 01:15:00,26.5,19.4,30.15,SSW,199,2.0,4.0,74,0.00,,---,0.00,VWS V13.01,2013-03-15 05:15:00,
2013-03-15 01:20:00,26.6,19.4,30.15,SSW,199,1.0,4.0,74,0.00,,---,0.00,VWS V13.01,2013-03-15 05:20:00,
2013-03-15 01:25:00,26.6,19.1,30.15,SSW,199,2.0,4.0,73,0.00,,---,0.00,VWS V13.01,2013-03-15 05:25:00,
2013-03-15 01:30:00,26.6,19.1,30.14,SSW,199,2.0,3.0,73,0.00,,---,0.00,VWS V13.01,2013-03-15 05:30:00,
2013-03-15 01:35:00,26.7,19.2,30.14,SSW,202,1.0,4.0,73,0.00,,---,0.00,VWS V13.01,2013-03-15 05:35:00,
2013-03-15 01:40:00,26.8,19.3,30.14,SSW,213,1.0,4.0,73,0.00,,---,0.00,VWS V13.01,2013-03-15 05:40:00,
2013-03-15 01:45:00,26.9,19.4,30.14,SSW,202,3.0,4.0,73,0.00,,---,0.00,VWS V13.01,2013-03-15 05:45:00,
2013-03-15 01:50:00,27.0,19.5,30.14,SSW,202,0.0,4.0,73,0.00,,---,0.00,VWS V13.01,2013-03-15 05:50:00,
2013-03-15 01:55:00,27.0,19.5,30.14,SSW,211,2.0,5.0,73,0.00,,---,0.00,VWS V13.01,2013-03-15 05:55:00,
2013-03-15 02:00:00,27.0,19.5,30.15,SW,216,2.0,4.0,73,0.00,,---,0.00,VWS V13.01,2013-03-15 06:00:00,
2013-03-15 02:05:00,27.0,19.5,30.14,SSW,209,3.0,5.0,73,0.00,,---,0.00,VWS V13.01,2013-03-15 06:05:00,
2013-03-15 02:10:00,26.9,19.7,30.14,SSW,209,2.0,5.0,74,0.00,,---,0.00,VWS V13.01,2013-03-15 06:10:00,
2013-03-15 02:15:00,26.9,19.7,30.14,SSW,207,1.0,5.0,74,0.00,,---,0.00,VWS V13.01,2013-03-15 06:15:00,
2013-03-15 02:20:00,26.8,19.6,30.14,SSW,213,3.0,5.0,74,0.00,,---,0.00,VWS V13.01,2013-03-15 06:20:00,
2013-03-15 02:25:00,26.7,19.5,30.14,SSW,213,2.0,5.0,74,0.00,,---,0.00,VWS V13.01,2013-03-15 06:25:00,
2013-03-15 02:30:00,26.7,19.5,30.15,SSW,211,2.0,3.0,74,0.00,,---,0.00,VWS V13.01,2013-03-15 06:30:00,
2013-03-15 02:35:00,26.6,19.8,30.15,SSW,205,2.0,4.0,75,0.00,,---,0.00,VWS V13.01,2013-03-15 06:35:00,
2013-03-15 02:40:00,26.5,19.7,30.15,SSW,204,2.0,4.0,75,0.00,,---,0.00,VWS V13.01,2013-03-15 06:40:00,
2013-03-15 02:45:00,26.5,19.7,30.14,SSW,204,3.0,4.0,75,0.00,,---,0.00,VWS V13.01,2013-03-15 06:45:00,
2013-03-15 02:50:00,26.6,19.8,30.14,SSW,196,2.0,4.0,75,0.00,,---,0.00,VWS V13.01,2013-03-15 06:50:00,
2013-03-15 02:55:00,26.6,19.8,30.14,SSW,197,3.0,4.0,75,0.00,,---,0.00,VWS V13.01,2013-03-15 06:55:00,
2013-03-15 03:00:00,26.6,19.8,30.14,SW,215,3.0,5.0,75,0.00,,---,0.00,VWS V13.01,2013-03-15 07:00:00,
2013-03-15 03:05:00,26.6,19.8,30.13,SW,214,1.0,5.0,75,0.00,,---,0.00,VWS V13.01,2013-03-15 07:05:00,
2013-03-15 03:10:00,26.5,19.7,30.13,SSW,204,2.0,5.0,75,0.00,,---,0.00,VWS V13.01,2013-03-15 07:10:00,
2013-03-15 03:15:00,26.5,19.7,30.13,SSW,213,4.0,5.0,75,0.00,,---,0.00,VWS V13.01,2013-03-15 07:15:00,
2013-03-15 03:20:00,26.5,19.7,30.12,SSW,211,2.0,5.0,75,0.00,,---,0.00,VWS V13.01,2013-03-15 07:20:00,
2013-03-15 03:25:00,26.5,19.7,30.12,SSW,213,4.0,6.0,75,0.00,,---,0.00,VWS V13.01,2013-03-15 07:25:00,
2013-03-15 03:30:00,26.6,19.8,30.12,SW,217,2.0,3.0,75,0.00,,---,0.00,VWS V13.01,2013-03-15 07:30:00,
2013-03-15 03:35:00,26.6,19.8,30.12,SW,214,2.0,5.0,75,0.00,,---,0.00,VWS V13.01,2013-03-15 07:35:00,
2013-03-15 03:40:00,26.6,19.8,30.12,SSW,213,3.0,5.0,75,0.00,,---,0.00,VWS V13.01,2013-03-15 07:40:00,
2013-03-15 03:45:00,26.5,19.7,30.12,SW,215,3.0,5.0,75,0.00,,---,0.00,VWS V13.01,2013-03-15 07:45:00,
2013-03-15 03:50:00,26.3,19.8,30.12,SSW,209,3.0,5.0,76,0.00,,---,0.00,VWS V13.01,2013-03-15 07:50:00,
2013-03-15 03:55:00,26.3,19.8,30.12,SSW,213,3.0,6.0,76,0.00,,---,0.00,VWS V13.01,2013-03-15 07:55:00,
2013-03-15 04:00:00,26.2,19.7,30.12,SW,215,2.0,3.0,76,0.00,,---,0.00,VWS V13.01,2013-03-15 08:00:00,
2013-03-15 04:05:00,26.2,19.7,30.12,SW,222,4.0,6.0,76,0.00,,---,0.00,VWS V13.01,2013-03-15 08:05:00,
2013-03-15 04:10:00,26.3,19.8,30.11,SSW,209,4.0,7.0,76,0.00,,---,0.00,VWS V13.01,2013-03-15 08:10:00,
2013-03-15 04:15:00,26.3,19.8,30.11,SW,226,4.0,7.0,76,0.00,,---,0.00,VWS V13.01,2013-03-15 08:15:00,
2013-03-15 04:20:00,26.3,19.8,30.11,SW,224,4.0,7.0,76,0.00,,---,0.00,VWS V13.01,2013-03-15 08:20:00,
2013-03-15 04:25:00,26.4,19.6,30.10,SSW,206,3.0,7.0,75,0.00,,---,0.00,VWS V13.01,2013-03-15 08:25:00,
2013-03-15 04:30:00,26.6,19.8,30.10,SSW,212,5.0,7.0,75,0.00,,---,0.00,VWS V13.01,2013-03-15 08:30:00,
2013-03-15 04:35:00,26.8,20.0,30.10,SSW,203,5.0,7.0,75,0.00,,---,0.00,VWS V13.01,2013-03-15 08:35:00,
2013-03-15 04:40:00,26.9,20.0,30.10,SSW,202,5.0,7.0,75,0.00,,---,0.00,VWS V13.01,2013-03-15 08:40:00,
2013-03-15 04:45:00,27.0,19.8,30.10,SW,221,4.0,7.0,74,0.00,,---,0.00,VWS V13.01,2013-03-15 08:45:00,
2013-03-15 04:50:00,27.1,19.9,30.10,SW,226,5.0,7.0,74,0.00,,---,0.00,VWS V13.01,2013-03-15 08:50:00,
2013-03-15 04:55:00,27.1,19.9,30.10,SW,221,3.0,7.0,74,0.00,,---,0.00,VWS V13.01,2013-03-15 08:55:00,
2013-03-15 05:00:00,27.1,19.9,30.09,SSW,206,7.0,8.0,74,0.00,,---,0.00,VWS V13.01,2013-03-15 09:00:00,
2013-03-15 05:05:00,27.2,20.0,30.09,SW,233,3.0,8.0,74,0.00,,---,0.00,VWS V13.01,2013-03-15 09:05:00,
2013-03-15 05:10:00,27.2,20.3,30.09,SW,216,3.0,8.0,75,0.00,,---,0.00,VWS V13.01,2013-03-15 09:10:00,
2013-03-15 05:15:00,27.1,20.2,30.09,SW,230,5.0,8.0,75,0.00,,---,0.00,VWS V13.01,2013-03-15 09:15:00,
2013-03-15 05:20:00,27.2,20.0,30.09,SW,214,5.0,8.0,74,0.00,,---,0.00,VWS V13.01,2013-03-15 09:20:00,
2013-03-15 05:25:00,27.2,20.0,30.09,SW,225,7.0,8.0,74,0.00,,---,0.00,VWS V13.01,2013-03-15 09:25:00,
2013-03-15 05:30:00,27.2,20.0,30.09,SSW,207,3.0,5.0,74,0.00,,---,0.00,VWS V13.01,2013-03-15 09:30:00,
2013-03-15 05:35:00,27.3,20.1,30.09,SW,227,5.0,10.0,74,0.00,,---,0.00,VWS V13.01,2013-03-15 09:35:00,
2013-03-15 05:40:00,27.3,20.1,30.09,SSW,204,5.0,10.0,74,0.00,,---,0.00,VWS V13.01,2013-03-15 09:40:00,
2013-03-15 05:45:00,27.4,20.2,30.09,WSW,238,5.0,10.0,74,0.00,,---,0.00,VWS V13.01,2013-03-15 09:45:00,
2013-03-15 05:50:00,27.4,20.2,30.09,SW,221,5.0,10.0,74,0.00,,---,0.00,VWS V13.01,2013-03-15 09:50:00,
2013-03-15 05:55:00,27.5,20.3,30.08,SSW,209,7.0,10.0,74,0.00,,---,0.00,VWS V13.01,2013-03-15 09:55:00,
2013-03-15 06:00:00,27.6,20.4,30.08,SW,232,5.0,7.0,74,0.00,,---,0.00,VWS V13.01,2013-03-15 10:00:00,
2013-03-15 06:05:00,27.8,20.6,30.08,SW,217,6.0,9.0,74,0.00,,---,0.00,VWS V13.01,2013-03-15 10:05:00,
2013-03-15 06:10:00,27.9,20.7,30.08,SW,215,6.0,9.0,74,0.00,,---,0.00,VWS V13.01,2013-03-15 10:10:00,
2013-03-15 06:15:00,28.0,20.5,30.08,SW,229,6.0,9.0,73,0.00,,---,0.00,VWS V13.01,2013-03-15 10:15:00,
2013-03-15 06:20:00,28.1,20.6,30.08,SSW,212,4.0,10.0,73,0.00,,---,0.00,VWS V13.01,2013-03-15 10:20:00,
2013-03-15 06:25:00,28.2,20.7,30.08,SW,215,8.0,10.0,73,0.00,,---,0.00,VWS V13.01,2013-03-15 10:25:00,
2013-03-15 06:30:00,28.3,20.8,30.08,SW,223,8.0,9.0,73,0.00,,---,0.00,VWS V13.01,2013-03-15 10:30:00,
2013-03-15 06:35:00,28.4,20.5,30.08,SSW,213,4.0,11.0,72,0.00,,---,0.00,VWS V13.01,2013-03-15 10:35:00,
2013-03-15 06:40:00,28.5,20.6,30.08,SSW,209,7.0,11.0,72,0.00,,---,0.00,VWS V13.01,2013-03-15 10:40:00,
2013-03-15 06:45:00,28.5,20.6,30.08,SSW,213,4.0,12.0,72,0.00,,---,0.00,VWS V13.01,2013-03-15 10:45:00,
2013-03-15 06:50:00,28.6,20.7,30.07,SSW,200,7.0,12.0,72,0.00,,---,0.00,VWS V13.01,2013-03-15 10:50:00,
2013-03-15 06:55:00,28.7,20.8,30.08,WSW,243,8.0,12.0,72,0.00,,---,0.00,VWS V13.01,2013-03-15 10:55:00,
2013-03-15 07:00:00,28.8,20.9,30.08,SW,221,4.0,7.0,72,0.00,,---,0.00,VWS V13.01,2013-03-15 11:00:00,
2013-03-15 07:05:00,28.9,21.0,30.08,SSW,207,7.0,12.0,72,0.00,,---,0.00,VWS V13.01,2013-03-15 11:05:00,
2013-03-15 07:10:00,29.0,21.1,30.08,SSW,209,6.0,12.0,72,0.00,,---,0.00,VWS V13.01,2013-03-15 11:10:00,
2013-03-15 07:15:00,29.1,20.9,30.08,SW,217,6.0,14.0,71,0.00,,---,0.00,VWS V13.01,2013-03-15 11:15:00,
2013-03-15 07:20:00,29.1,20.9,30.08,SW,216,7.0,14.0,71,0.00,,---,0.00,VWS V13.01,2013-03-15 11:20:00,
2013-03-15 07:25:00,29.2,21.0,30.08,SW,229,8.0,14.0,71,0.00,,---,0.00,VWS V13.01,2013-03-15 11:25:00,
2013-03-15 07:30:00,29.4,20.8,30.07,SW,215,8.0,10.0,70,0.00,,---,0.00,VWS V13.01,2013-03-15 11:30:00,
2013-03-15 07:35:00,29.4,20.8,30.07,SW,225,9.0,10.0,70,0.00,,---,0.00,VWS V13.01,2013-03-15 11:35:00,
2013-03-15 07:40:00,29.5,20.9,30.06,SW,218,7.0,12.0,70,0.00,,---,0.00,VWS V13.01,2013-03-15 11:40:00,
2013-03-15 07:45:00,29.6,21.0,30.06,WSW,238,4.0,12.0,70,0.00,,---,0.00,VWS V13.01,2013-03-15 11:45:00,
2013-03-15 07:50:00,29.7,21.1,30.06,WSW,253,7.0,12.0,70,0.00,,---,0.00,VWS V13.01,2013-03-15 11:50:00,
2013-03-15 07:55:00,29.7,21.1,30.06,SW,222,9.0,12.0,70,0.00,,---,0.00,VWS V13.01,2013-03-15 11:55:00,
2013-03-15 08:00:00,29.8,21.2,30.06,SSW,205,8.0,9.0,70,0.00,,---,0.00,VWS V13.01,2013-03-15 12:00:00,
2013-03-15 08:05:00,29.9,21.3,30.06,SSW,209,6.0,13.0,70,0.00,,---,0.00,VWS V13.01,2013-03-15 12:05:00,
2013-03-15 08:10:00,30.0,21.1,30.06,SW,229,6.0,13.0,69,0.00,,---,0.00,VWS V13.01,2013-03-15 12:10:00,
2013-03-15 08:15:00,30.1,21.2,30.06,SW,225,9.0,13.0,69,0.00,,---,0.00,VWS V13.01,2013-03-15 12:15:00,
2013-03-15 08:20:00,30.3,21.4,30.05,SSW,194,7.0,13.0,69,0.00,,---,0.00,VWS V13.01,2013-03-15 12:20:00,
2013-03-15 08:25:00,30.4,21.5,30.05,SSW,213,7.0,13.0,69,0.00,,---,0.00,VWS V13.01,2013-03-15 12:25:00,
2013-03-15 08:30:00,30.5,21.2,30.05,SW,227,8.0,8.0,68,0.00,,---,0.00,VWS V13.01,2013-03-15 12:30:00,
2013-03-15 08:35:00,30.7,21.4,30.05,SW,227,9.0,14.0,68,0.00,,---,0.00,VWS V13.01,2013-03-15 12:35:00,
2013-03-15 08:40:00,30.8,21.5,30.05,SW,221,2.0,14.0,68,0.00,,---,0.00,VWS V13.01,2013-03-15 12:40:00,
2013-03-15 08:45:00,30.9,21.6,30.05,SW,232,7.0,14.0,68,0.00,,---,0.00,VWS V13.01,2013-03-15 12:45:00,
2013-03-15 08:50:00,31.1,21.4,30.05,SW,217,8.0,14.0,67,0.00,,---,0.00,VWS V13.01,2013-03-15 12:50:00,
2013-03-15 08:55:00,31.3,21.6,30.04,WSW,243,7.0,14.0,67,0.00,,---,0.00,VWS V13.01,2013-03-15 12:55:00,
2013-03-15 09:00:00,31.4,21.4,30.04,SW,215,13.0,13.0,66,0.00,,---,0.00,VWS V13.01,2013-03-15 13:00:00,
2013-03-15 09:05:00,31.6,21.6,30.04,SW,227,5.0,13.0,66,0.00,,---,0.00,VWS V13.01,2013-03-15 13:05:00,
2013-03-15 09:10:00,31.7,21.3,30.04,SW,225,9.0,14.0,65,0.00,,---,0.00,VWS V13.01,2013-03-15 13:10:00,
2013-03-15 09:15:00,31.9,21.5,30.04,SW,223,9.0,14.0,65,0.00,,---,0.00,VWS V13.01,2013-03-15 13:15:00,
2013-03-15 09:20:00,32.0,21.6,30.04,SW,217,10.0,14.0,65,0.00,,---,0.00,VWS V13.01,2013-03-15 13:20:00,
2013-03-15 09:25:00,32.1,21.7,30.04,SW,232,9.0,14.0,65,0.00,,---,0.00,VWS V13.01,2013-03-15 13:25:00,
2013-03-15 09:30:00,32.3,21.5,30.04,SW,223,5.0,7.0,64,0.00,,---,0.00,VWS V13.01,2013-03-15 13:30:00,
2013-03-15 09:35:00,32.5,21.7,30.03,SW,215,8.0,16.0,64,0.00,,---,0.00,VWS V13.01,2013-03-15 13:35:00,
2013-03-15 09:40:00,32.7,21.5,30.03,SW,224,12.0,16.0,63,0.00,,---,0.00,VWS V13.01,2013-03-15 13:40:00,
2013-03-15 09:45:00,32.9,21.3,30.03,West,259,6.0,16.0,62,0.00,,---,0.00,VWS V13.01,2013-03-15 13:45:00,
2013-03-15 09:50:00,33.1,21.1,30.03,SSW,204,7.0,17.0,61,0.00,,---,0.00,VWS V13.01,2013-03-15 13:50:00,
2013-03-15 09:55:00,33.4,21.8,30.03,SW,220,13.0,17.0,62,0.00,,---,0.00,VWS V13.01,2013-03-15 13:55:00,
2013-03-15 10:00:00,33.6,21.6,30.03,SW,222,8.0,10.0,61,0.00,,---,0.00,VWS V13.01,2013-03-15 14:00:00,
2013-03-15 10:05:00,33.8,21.8,30.03,SW,228,6.0,16.0,61,0.00,,---,0.00,VWS V13.01,2013-03-15 14:05:00,
2013-03-15 10:10:00,34.1,22.1,30.03,WSW,244,6.0,16.0,61,0.00,,---,0.00,VWS V13.01,2013-03-15 14:10:00,
2013-03-15 10:15:00,34.6,22.5,30.03,SW,222,7.0,16.0,61,0.00,,---,0.00,VWS V13.01,2013-03-15 14:15:00,
2013-03-15 10:20:00,35.1,22.6,30.02,SW,229,5.0,16.0,60,0.00,,---,0.00,VWS V13.01,2013-03-15 14:20:00,
2013-03-15 10:25:00,35.5,23.0,30.02,WSW,238,7.0,16.0,60,0.00,,---,0.00,VWS V13.01,2013-03-15 14:25:00,
2013-03-15 10:30:00,36.1,23.6,30.02,SW,236,10.0,10.0,60,0.00,,---,0.00,VWS V13.01,2013-03-15 14:30:00,
2013-03-15 10:35:00,36.5,23.1,30.02,SSW,205,7.0,16.0,58,0.00,,---,0.00,VWS V13.01,2013-03-15 14:35:00,
2013-03-15 10:40:00,37.1,23.7,30.01,SW,235,8.0,16.0,58,0.00,,---,0.00,VWS V13.01,2013-03-15 14:40:00,
2013-03-15 10:45:00,37.9,24.5,30.01,South,188,7.0,16.0,58,0.00,,---,0.00,VWS V13.01,2013-03-15 14:45:00,
2013-03-15 10:50:00,38.3,24.8,30.01,SW,233,8.0,22.0,58,0.00,,---,0.00,VWS V13.01,2013-03-15 14:50:00,
2013-03-15 10:55:00,38.4,24.5,30.00,SW,233,10.0,22.0,57,0.00,,---,0.00,VWS V13.01,2013-03-15 14:55:00,
2013-03-15 11:00:00,38.4,24.1,30.00,SW,219,7.0,12.0,56,0.00,,---,0.00,VWS V13.01,2013-03-15 15:00:00,
2013-03-15 11:05:00,38.6,24.3,30.00,SW,217,10.0,15.0,56,0.00,,---,0.00,VWS V13.01,2013-03-15 15:05:00,
2013-03-15 11:10:00,38.6,24.3,30.00,SW,229,6.0,16.0,56,0.00,,---,0.00,VWS V13.01,2013-03-15 15:10:00,
2013-03-15 11:15:00,38.7,25.2,30.00,SSW,207,5.0,19.0,58,0.00,,---,0.00,VWS V13.01,2013-03-15 15:15:00,
2013-03-15 11:20:00,38.9,25.0,30.00,SW,227,12.0,19.0,57,0.00,,---,0.00,VWS V13.01,2013-03-15 15:20:00,
2013-03-15 11:25:00,39.0,25.1,29.99,West,276,6.0,21.0,57,0.00,,---,0.00,VWS V13.01,2013-03-15 15:25:00,
2013-03-15 11:30:00,39.0,25.5,30.00,SW,221,12.0,18.0,58,0.00,,---,0.00,VWS V13.01,2013-03-15 15:30:00,
2013-03-15 11:35:00,39.1,26.0,29.99,West,269,8.0,18.0,59,0.00,,---,0.00,VWS V13.01,2013-03-15 15:35:00,
2013-03-15 11:40:00,39.5,25.5,29.99,SW,222,13.0,18.0,57,0.00,,---,0.00,VWS V13.01,2013-03-15 15:40:00,
2013-03-15 11:45:00,39.7,26.1,29.99,SW,219,9.0,18.0,58,0.00,,---,0.00,VWS V13.01,2013-03-15 15:45:00,
2013-03-15 11:50:00,40.0,26.4,29.99,SW,234,8.0,18.0,58,0.00,,---,0.00,VWS V13.01,2013-03-15 15:50:00,
2013-03-15 11:55:00,40.2,26.6,29.99,WSW,246,13.0,18.0,58,0.00,,---,0.00,VWS V13.01,2013-03-15 15:55:00,
2013-03-15 12:00:00,40.4,26.8,29.98,WSW,250,8.0,19.0,58,0.00,,---,0.00,VWS V13.01,2013-03-15 16:00:00,
2013-03-15 12:05:00,40.3,27.5,29.98,WSW,243,11.0,19.0,60,0.00,,---,0.00,VWS V13.01,2013-03-15 16:05:00,
2013-03-15 12:10:00,40.6,27.8,29.97,SW,217,15.0,21.0,60,0.00,,---,0.00,VWS V13.01,2013-03-15 16:10:00,
2013-03-15 12:15:00,40.8,28.0,29.97,WSW,253,12.0,21.0,60,0.00,,---,0.00,VWS V13.01,2013-03-15 16:15:00,
2013-03-15 12:20:00,40.8,27.6,29.97,SW,232,9.0,21.0,59,0.00,,---,0.00,VWS V13.01,2013-03-15 16:20:00,
2013-03-15 12:25:00,40.6,27.4,29.97,WSW,245,10.0,21.0,59,0.00,,---,0.00,VWS V13.01,2013-03-15 16:25:00,
2013-03-15 12:30:00,40.4,27.6,29.96,SSW,198,8.0,15.0,60,0.00,,---,0.00,VWS V13.01,2013-03-15 16:30:00,
2013-03-15 12:35:00,40.2,27.8,29.96,West,263,5.0,17.0,61,0.00,,---,0.00,VWS V13.01,2013-03-15 16:35:00,
2013-03-15 12:40:00,40.2,27.8,29.96,SW,236,12.0,18.0,61,0.00,,---,0.00,VWS V13.01,2013-03-15 16:40:00,
2013-03-15 12:45:00,40.3,28.3,29.96,SW,215,12.0,18.0,62,0.00,,---,0.00,VWS V13.01,2013-03-15 16:45:00,
2013-03-15 12:50:00,40.4,28.8,29.96,SW,233,14.0,18.0,63,0.00,,---,0.00,VWS V13.01,2013-03-15 16:50:00,
2013-03-15 12:55:00,40.6,28.6,29.96,SW,234,14.0,18.0,62,0.00,,---,0.00,VWS V13.01,2013-03-15 16:55:00,
2013-03-15 13:00:00,40.6,28.6,29.95,SW,225,13.0,13.0,62,0.00,,---,0.00,VWS V13.01,2013-03-15 17:00:00,
2013-03-15 13:05:00,40.6,28.6,29.95,SW,223,12.0,17.0,62,0.00,,---,0.00,VWS V13.01,2013-03-15 17:05:00,
2013-03-15 13:10:00,40.7,29.1,29.95,WSW,246,4.0,17.0,63,0.00,,---,0.00,VWS V13.01,2013-03-15 17:10:00,
2013-03-15 13:16:00,41.1,29.5,29.94,WSW,241,8.0,18.0,63,0.00,,---,0.00,VWS V13.01,2013-03-15 17:16:00,
2013-03-15 13:21:00,41.4,29.8,29.94,SW,229,11.0,18.0,63,0.00,,---,0.00,VWS V13.01,2013-03-15 17:21:00,
2013-03-15 13:26:00,41.9,30.2,29.94,SW,230,11.0,18.0,63,0.00,,---,0.00,VWS V13.01,2013-03-15 17:26:00,
2013-03-15 13:30:00,42.4,30.7,29.94,SW,217,12.0,15.0,63,0.00,,---,0.00,VWS V13.01,2013-03-15 17:30:00,
2013-03-15 13:35:00,42.6,30.9,29.93,South,191,11.0,21.0,63,0.00,,---,0.00,VWS V13.01,2013-03-15 17:35:00,
2013-03-15 13:40:00,43.0,31.3,29.92,SSW,213,10.0,21.0,63,0.00,,---,0.00,VWS V13.01,2013-03-15 17:40:00,
2013-03-15 13:45:00,43.5,31.4,29.92,WSW,256,9.0,21.0,62,0.00,,---,0.00,VWS V13.01,2013-03-15 17:45:00,
2013-03-15 13:50:00,43.8,31.6,29.92,SW,222,10.0,21.0,62,0.00,,---,0.00,VWS V13.01,2013-03-15 17:50:00,
2013-03-15 13:55:00,44.2,31.6,29.91,West,273,10.0,21.0,61,0.00,,---,0.00,VWS V13.01,2013-03-15 17:55:00,
2013-03-15 14:01:00,44.6,32.0,29.91,SW,227,9.0,10.0,61,0.00,,---,0.00,VWS V13.01,2013-03-15 18:01:00,
2013-03-15 14:06:00,44.9,31.5,29.91,SW,232,14.0,14.0,59,0.00,,---,0.00,VWS V13.01,2013-03-15 18:06:00,
2013-03-15 14:10:00,44.9,31.9,29.91,SW,221,4.0,19.0,60,0.00,,---,0.00,VWS V13.01,2013-03-15 18:10:00,
2013-03-15 14:16:00,45.5,32.0,29.90,WSW,252,16.0,19.0,59,0.00,,---,0.00,VWS V13.01,2013-03-15 18:16:00,
2013-03-15 14:21:00,45.5,31.6,29.90,WSW,256,13.0,19.0,58,0.00,,---,0.00,VWS V13.01,2013-03-15 18:21:00,
2013-03-15 14:26:00,45.6,31.3,29.90,SW,217,10.0,19.0,57,0.00,,---,0.00,VWS V13.01,2013-03-15 18:26:00,
2013-03-15 14:31:00,45.8,31.5,29.90,SW,228,8.0,13.0,57,0.00,,---,0.00,VWS V13.01,2013-03-15 18:31:00,
2013-03-15 14:36:00,45.8,31.5,29.89,SW,232,13.0,19.0,57,0.00,,---,0.00,VWS V13.01,2013-03-15 18:36:00,
2013-03-15 14:40:00,46.0,31.2,29.89,West,275,4.0,19.0,56,0.00,,---,0.00,VWS V13.01,2013-03-15 18:40:00,
2013-03-15 14:46:00,46.5,31.7,29.89,SW,232,8.0,20.0,56,0.00,,---,0.00,VWS V13.01,2013-03-15 18:46:00,
2013-03-15 14:50:00,47.0,32.6,29.88,WSW,250,15.0,20.0,57,0.00,,---,0.00,VWS V13.01,2013-03-15 18:50:00,
2013-03-15 14:55:00,47.4,31.6,29.89,West,263,3.0,20.0,54,0.00,,---,0.00,VWS V13.01,2013-03-15 18:55:00,
2013-03-15 15:00:00,47.6,31.8,29.88,SW,231,8.0,11.0,54,0.00,,---,0.00,VWS V13.01,2013-03-15 19:00:00,
2013-03-15 15:06:00,47.3,31.5,29.88,West,271,5.0,19.0,54,0.00,,---,0.00,VWS V13.01,2013-03-15 19:06:00,
2013-03-15 15:11:00,47.2,31.4,29.88,SW,232,8.0,19.0,54,0.00,,---,0.00,VWS V13.01,2013-03-15 19:11:00,
2013-03-15 15:16:00,47.1,31.3,29.88,SW,235,9.0,20.0,54,0.00,,---,0.00,VWS V13.01,2013-03-15 19:16:00,
2013-03-15 15:21:00,47.3,31.5,29.88,WSW,242,7.0,22.0,54,0.00,,---,0.00,VWS V13.01,2013-03-15 19:21:00,
2013-03-15 15:26:00,47.4,31.6,29.88,West,279,10.0,22.0,54,0.00,,---,0.00,VWS V13.01,2013-03-15 19:26:00,
2013-03-15 15:31:00,47.7,32.3,29.87,WSW,244,15.0,17.0,55,0.00,,---,0.00,VWS V13.01,2013-03-15 19:31:00,
2013-03-15 15:36:00,47.7,32.3,29.87,WSW,252,10.0,20.0,55,0.00,,---,0.00,VWS V13.01,2013-03-15 19:36:00,
2013-03-15 15:41:00,48.1,32.3,29.87,SW,221,7.0,20.0,54,0.00,,---,0.00,VWS V13.01,2013-03-15 19:41:00,
2013-03-15 15:46:00,48.5,32.6,29.87,SW,223,7.0,20.0,54,0.00,,---,0.00,VWS V13.01,2013-03-15 19:46:00,
2013-03-15 15:51:00,48.7,32.3,29.87,SW,227,12.0,20.0,53,0.00,,---,0.00,VWS V13.01,2013-03-15 19:51:00,
2013-03-15 15:56:00,48.7,31.9,29.86,WSW,244,8.0,20.0,52,0.00,,---,0.00,VWS V13.01,2013-03-15 19:56:00,
2013-03-15 16:01:00,48.6,32.3,29.86,SW,225,9.0,14.0,53,0.00,,---,0.00,VWS V13.01,2013-03-15 20:01:00,
2013-03-15 16:06:00,48.6,32.3,29.86,WSW,247,10.0,23.0,53,0.00,,---,0.00,VWS V13.01,2013-03-15 20:06:00,
2013-03-15 16:11:00,48.9,32.5,29.86,WSW,253,14.0,23.0,53,0.00,,---,0.00,VWS V13.01,2013-03-15 20:11:00,
2013-03-15 16:16:00,49.0,32.6,29.86,WNW,284,7.0,23.0,53,0.00,,---,0.00,VWS V13.01,2013-03-15 20:16:00,
2013-03-15 16:21:00,49.0,32.6,29.86,West,275,6.0,23.0,53,0.00,,---,0.00,VWS V13.01,2013-03-15 20:21:00,
2013-03-15 16:26:00,49.0,32.6,29.86,WSW,253,5.0,23.0,53,0.00,,---,0.00,VWS V13.01,2013-03-15 20:26:00,
2013-03-15 16:31:00,48.9,32.5,29.86,WNW,292,6.0,21.0,53,0.00,,---,0.00,VWS V13.01,2013-03-15 20:31:00,
2013-03-15 16:36:00,48.7,32.8,29.86,SW,229,7.0,21.0,54,0.00,,---,0.00,VWS V13.01,2013-03-15 20:36:00,
2013-03-15 16:41:00,48.7,32.8,29.85,SW,223,10.0,21.0,54,0.00,,---,0.00,VWS V13.01,2013-03-15 20:41:00,
2013-03-15 16:46:00,49.1,33.2,29.85,WSW,257,9.0,21.0,54,0.00,,---,0.00,VWS V13.01,2013-03-15 20:46:00,
2013-03-15 16:51:00,49.2,32.8,29.85,WSW,246,5.0,21.0,53,0.00,,---,0.00,VWS V13.01,2013-03-15 20:51:00,
2013-03-15 16:56:00,49.2,32.8,29.85,WSW,257,7.0,21.0,53,0.00,,---,0.00,VWS V13.01,2013-03-15 20:56:00,
2013-03-15 17:02:00,49.4,33.0,29.85,West,269,6.0,13.0,53,0.00,,---,0.00,VWS V13.01,2013-03-15 21:02:00,
2013-03-15 17:07:00,49.3,32.9,29.85,WSW,254,8.0,16.0,53,0.00,,---,0.00,VWS V13.01,2013-03-15 21:07:00,
2013-03-15 17:12:00,49.1,32.7,29.85,NW,306,13.0,16.0,53,0.00,,---,0.00,VWS V13.01,2013-03-15 21:12:00,
2013-03-15 17:17:00,49.2,32.8,29.85,WNW,294,7.0,16.0,53,0.00,,---,0.00,VWS V13.01,2013-03-15 21:17:00,
2013-03-15 17:22:00,49.1,32.7,29.85,WSW,256,10.0,16.0,53,0.00,,---,0.00,VWS V13.01,2013-03-15 21:22:00,
2013-03-15 17:27:00,49.2,33.3,29.85,WSW,243,6.0,16.0,54,0.00,,---,0.00,VWS V13.01,2013-03-15 21:27:00,
2013-03-15 17:32:00,49.3,32.9,29.85,WSW,241,9.0,11.0,53,0.00,,---,0.00,VWS V13.01,2013-03-15 21:32:00,
2013-03-15 17:37:00,49.4,33.0,29.85,West,265,3.0,14.0,53,0.00,,---,0.00,VWS V13.01,2013-03-15 21:37:00,
2013-03-15 17:42:00,49.4,33.0,29.85,WSW,249,6.0,14.0,53,0.00,,---,0.00,VWS V13.01,2013-03-15 21:42:00,
2013-03-15 17:47:00,49.3,32.9,29.84,WSW,256,10.0,16.0,53,0.00,,---,0.00,VWS V13.01,2013-03-15 21:47:00,
2013-03-15 17:52:00,49.2,32.8,29.84,WSW,242,7.0,16.0,53,0.00,,---,0.00,VWS V13.01,2013-03-15 21:52:00,
2013-03-15 17:57:00,49.0,32.6,29.84,WSW,238,8.0,16.0,53,0.00,,---,0.00,VWS V13.01,2013-03-15 21:57:00,
2013-03-15 18:02:00,49.0,33.1,29.84,SW,229,2.0,6.0,54,0.00,,---,0.00,VWS V13.01,2013-03-15 22:02:00,
2013-03-15 18:07:00,49.0,33.1,29.84,WSW,249,10.0,10.0,54,0.00,,---,0.00,VWS V13.01,2013-03-15 22:07:00,
2013-03-15 18:12:00,48.9,33.0,29.84,SW,230,6.0,11.0,54,0.00,,---,0.00,VWS V13.01,2013-03-15 22:12:00,
2013-03-15 18:17:00,48.8,33.4,29.84,WSW,252,2.0,11.0,55,0.00,,---,0.00,VWS V13.01,2013-03-15 22:17:00,
2013-03-15 18:22:00,48.7,32.8,29.84,SW,234,4.0,11.0,54,0.00,,---,0.00,VWS V13.01,2013-03-15 22:22:00,
2013-03-15 18:27:00,48.7,33.3,29.84,WSW,252,6.0,12.0,55,0.00,,---,0.00,VWS V13.01,2013-03-15 22:27:00,
2013-03-15 18:32:00,48.6,33.2,29.84,West,263,7.0,9.0,55,0.00,,---,0.00,VWS V13.01,2013-03-15 22:32:00,
2013-03-15 18:37:00,48.5,33.5,29.84,West,271,3.0,9.0,56,0.00,,---,0.00,VWS V13.01,2013-03-15 22:37:00,
2013-03-15 18:42:00,48.4,33.4,29.85,WSW,244,4.0,11.0,56,0.00,,---,0.00,VWS V13.01,2013-03-15 22:42:00,
2013-03-15 18:47:00,48.3,33.3,29.85,WNW,282,2.0,11.0,56,0.00,,---,0.00,VWS V13.01,2013-03-15 22:47:00,
2013-03-15 18:52:00,48.2,33.3,29.85,WNW,286,4.0,11.0,56,0.00,,---,0.00,VWS V13.01,2013-03-15 22:52:00,
2013-03-15 18:57:00,48.1,33.2,29.85,West,272,6.0,11.0,56,0.00,,---,0.00,VWS V13.01,2013-03-15 22:57:00,
2013-03-15 19:02:00,48.1,33.2,29.85,West,266,3.0,6.0,56,0.00,,---,0.00,VWS V13.01,2013-03-15 23:02:00,
2013-03-15 19:07:00,48.0,33.1,29.85,West,261,3.0,8.0,56,0.00,,---,0.00,VWS V13.01,2013-03-15 23:07:00,
2013-03-15 19:12:00,47.9,33.4,29.85,WSW,238,4.0,8.0,57,0.00,,---,0.00,VWS V13.01,2013-03-15 23:12:00,
2013-03-15 19:17:00,47.8,33.3,29.85,WSW,257,4.0,8.0,57,0.00,,---,0.00,VWS V13.01,2013-03-15 23:17:00,
2013-03-15 19:22:00,47.7,33.2,29.85,WNW,284,1.0,8.0,57,0.00,,---,0.00,VWS V13.01,2013-03-15 23:22:00,
2013-03-15 19:27:00,47.7,33.2,29.85,WSW,248,2.0,8.0,57,0.00,,---,0.00,VWS V13.01,2013-03-15 23:27:00,
2013-03-15 19:32:00,47.6,33.6,29.85,West,259,4.0,6.0,58,0.00,,---,0.00,VWS V13.01,2013-03-15 23:32:00,
2013-03-15 19:37:00,47.5,33.0,29.86,West,266,3.0,8.0,57,0.00,,---,0.00,VWS V13.01,2013-03-15 23:37:00,
2013-03-15 19:43:00,47.4,33.4,29.86,West,281,5.0,8.0,58,0.00,,---,0.00,VWS V13.01,2013-03-15 23:43:00,
2013-03-15 19:47:00,47.4,33.4,29.86,West,262,2.0,8.0,58,0.00,,---,0.00,VWS V13.01,2013-03-15 23:47:00,
2013-03-15 19:53:00,47.4,33.4,29.86,WSW,249,2.0,8.0,58,0.00,,---,0.00,VWS V13.01,2013-03-15 23:53:00,
2013-03-15 19:58:00,47.3,33.3,29.86,WSW,257,2.0,8.0,58,0.00,,---,0.00,VWS V13.01,2013-03-15 23:58:00,
2013-03-15 20:03:00,47.2,33.2,29.86,West,279,6.0,6.0,58,0.00,,---,0.00,VWS V13.01,2013-03-16 00:03:00,
2013-03-15 20:08:00,47.2,33.2,29.86,WSW,252,4.0,8.0,58,0.00,,---,0.00,VWS V13.01,2013-03-16 00:08:00,
2013-03-15 20:13:00,47.2,33.2,29.86,West,277,4.0,9.0,58,0.00,,---,0.00,VWS V13.01,2013-03-16 00:13:00,
2013-03-15 20:18:00,47.2,33.2,29.86,West,265,2.0,9.0,58,0.00,,---,0.00,VWS V13.01,2013-03-16 00:18:00,
2013-03-15 20:23:00,47.1,33.5,29.86,WSW,248,5.0,9.0,59,0.00,,---,0.00,VWS V13.01,2013-03-16 00:23:00,
2013-03-15 20:28:00,47.1,33.5,29.86,West,262,3.0,9.0,59,0.00,,---,0.00,VWS V13.01,2013-03-16 00:28:00,
2013-03-15 20:33:00,47.1,33.5,29.86,West,261,2.0,5.0,59,0.00,,---,0.00,VWS V13.01,2013-03-16 00:33:00,
2013-03-15 20:38:00,47.0,33.4,29.86,West,261,2.0,5.0,59,0.00,,---,0.00,VWS V13.01,2013-03-16 00:38:00,
2013-03-15 20:43:00,46.9,33.8,29.86,WSW,249,2.0,5.0,60,0.00,,---,0.00,VWS V13.01,2013-03-16 00:43:00,
2013-03-15 20:48:00,46.9,33.8,29.87,West,263,1.0,6.0,60,0.00,,---,0.00,VWS V13.01,2013-03-16 00:48:00,
2013-03-15 20:53:00,46.8,33.7,29.87,West,264,0.0,6.0,60,0.00,,---,0.00,VWS V13.01,2013-03-16 00:53:00,
2013-03-15 20:57:00,46.7,33.6,29.87,West,278,1.0,6.0,60,0.00,,---,0.00,VWS V13.01,2013-03-16 00:57:00,
2013-03-15 21:02:00,46.7,33.6,29.87,West,273,2.0,3.0,60,0.00,,---,0.00,VWS V13.01,2013-03-16 01:02:00,
2013-03-15 21:07:00,46.6,33.9,29.87,WSW,258,1.0,3.0,61,0.00,,---,0.00,VWS V13.01,2013-03-16 01:07:00,
2013-03-15 21:12:00,46.5,33.8,29.87,WSW,253,3.0,3.0,61,0.00,,---,0.00,VWS V13.01,2013-03-16 01:12:00,
2013-03-15 21:17:00,46.5,33.8,29.87,West,260,1.0,3.0,61,0.00,,---,0.00,VWS V13.01,2013-03-16 01:17:00,
2013-03-15 21:22:00,46.4,33.7,29.87,West,259,0.0,3.0,61,0.00,,---,0.00,VWS V13.01,2013-03-16 01:22:00,
2013-03-15 21:28:00,46.3,34.0,29.87,West,259,2.0,3.0,62,0.00,,---,0.00,VWS V13.01,2013-03-16 01:28:00,
2013-03-15 21:33:00,46.2,34.7,29.87,West,259,1.0,2.0,64,0.00,,---,0.00,VWS V13.01,2013-03-16 01:33:00,
2013-03-15 21:38:00,46.0,34.5,29.88,NNW,333,4.0,5.0,64,0.00,,---,0.00,VWS V13.01,2013-03-16 01:38:00,
2013-03-15 21:43:00,45.6,34.1,29.88,NNE,27,5.0,8.0,64,0.00,,---,0.00,VWS V13.01,2013-03-16 01:43:00,
2013-03-15 21:48:00,45.1,34.0,29.88,NW,311,4.0,8.0,65,0.00,,---,0.00,VWS V13.01,2013-03-16 01:48:00,
2013-03-15 21:53:00,44.8,34.5,29.88,NNW,329,2.0,8.0,67,0.00,,---,0.00,VWS V13.01,2013-03-16 01:53:00,
2013-03-15 21:58:00,44.4,34.5,29.88,NNW,342,2.0,8.0,68,0.00,,---,0.00,VWS V13.01,2013-03-16 01:58:00,
2013-03-15 22:03:00,44.1,34.6,29.88,NNW,327,2.0,4.0,69,0.00,,---,0.00,VWS V13.01,2013-03-16 02:03:00,
2013-03-15 22:08:00,43.8,34.7,29.88,North,360,3.0,4.0,70,0.00,,---,0.00,VWS V13.01,2013-03-16 02:08:00,
2013-03-15 22:13:00,43.6,34.8,29.88,NW,322,1.0,4.0,71,0.00,,---,0.00,VWS V13.01,2013-03-16 02:13:00,
2013-03-15 22:18:00,43.4,35.0,29.89,NW,321,3.0,5.0,72,0.00,,---,0.00,VWS V13.01,2013-03-16 02:18:00,
2013-03-15 22:23:00,43.2,35.1,29.89,NNW,336,2.0,5.0,73,0.00,,---,0.00,VWS V13.01,2013-03-16 02:23:00,
2013-03-15 22:28:00,43.0,35.3,29.89,North,5,3.0,5.0,74,0.00,,---,0.00,VWS V13.01,2013-03-16 02:28:00,
2013-03-15 22:33:00,42.9,35.2,29.89,North,355,2.0,4.0,74,0.00,,---,0.00,VWS V13.01,2013-03-16 02:33:00,
2013-03-15 22:38:00,42.7,35.3,29.88,NNW,336,2.0,4.0,75,0.00,,---,0.00,VWS V13.01,2013-03-16 02:38:00,
2013-03-15 22:43:00,42.5,35.5,29.89,NNW,340,1.0,4.0,76,0.00,,---,0.00,VWS V13.01,2013-03-16 02:43:00,
2013-03-15 22:48:00,42.4,35.7,29.88,NNW,342,5.0,5.0,77,0.00,,---,0.00,VWS V13.01,2013-03-16 02:48:00,
2013-03-15 22:53:00,42.3,35.6,29.88,NNW,328,1.0,5.0,77,0.00,,---,0.00,VWS V13.01,2013-03-16 02:53:00,
2013-03-15 22:58:00,42.2,35.8,29.88,NNW,337,3.0,5.0,78,0.00,,---,0.00,VWS V13.01,2013-03-16 02:58:00,
2013-03-15 23:03:00,42.0,35.7,29.88,NNW,347,2.0,3.0,78,0.00,,---,0.00,VWS V13.01,2013-03-16 03:03:00,
2013-03-15 23:08:00,41.9,35.5,29.89,NNW,343,3.0,4.0,78,0.00,,---,0.00,VWS V13.01,2013-03-16 03:08:00,
2013-03-15 23:13:00,41.8,35.8,29.88,North,349,2.0,4.0,79,0.00,,---,0.00,VWS V13.01,2013-03-16 03:13:00,
2013-03-15 23:18:00,41.6,35.9,29.88,NNW,338,2.0,4.0,80,0.00,,---,0.00,VWS V13.01,2013-03-16 03:18:00,
2013-03-15 23:23:00,41.5,36.1,29.88,NNW,338,1.0,4.0,81,0.00,,---,0.00,VWS V13.01,2013-03-16 03:23:00,
2013-03-15 23:28:00,41.3,35.9,29.88,North,355,1.0,6.0,81,0.00,,---,0.00,VWS V13.01,2013-03-16 03:28:00,
2013-03-15 23:33:00,41.1,36.0,29.88,NNE,13,2.0,5.0,82,0.00,,---,0.00,VWS V13.01,2013-03-16 03:33:00,
2013-03-15 23:38:00,40.9,35.8,29.88,NNW,348,2.0,6.0,82,0.00,,---,0.00,VWS V13.01,2013-03-16 03:38:00,
2013-03-15 23:43:00,40.7,36.0,29.88,NNE,18,4.0,6.0,83,0.00,,---,0.00,VWS V13.01,2013-03-16 03:43:00,
2013-03-15 23:48:00,40.5,35.8,29.88,NNE,12,2.0,6.0,83,0.00,,---,0.00,VWS V13.01,2013-03-16 03:48:00,
2013-03-15 23:53:00,40.3,35.9,29.88,North,360,3.0,6.0,84,0.00,,---,0.00,VWS V13.01,2013-03-16 03:53:00,
2013-03-15 23:58:00,40.2,36.1,29.87,North,5,2.0,6.0,85,0.00,,---,0.00,VWS V13.01,2013-03-16 03:58:00,